[[{"header":{"parameterUnit":"m.s-1","parameterCategory":1,"la1":30.2991,"la2":30.254,"lo1":-89.0895,"lo2":-89.0444,"dy":0.0017,"dx":0.0017,"nx":28,"ny":28,"refTime":"2025-04-30T21:00:00:Z","depth":0,"parameterNumber":2,"parameterNumberName":"U-component_of_WINDS"},"data":[0,0,0,0,0,0,0,0,0,0,0,0,0,0,0,0,0,0,0,0,0,0,0,0,0,0,0,0,0,0,0,0,0,0,0,0,0,0,0,0,0,0,0,0,0,0,0,0,0,0,0,0,0,0,0,0,0,0,-1.7744,-1.7744,0,-1.7737,-1.7737,-1.7737,-1.7737,-1.7737,-1.7738,-1.7738,-1.7728,-1.7728,-1.7728,0,0,0,0,0,0,0,0,0,0,0,0,0,-1.7757,-1.7757,-1.7744,-1.7744,-1.7744,-1.7737,-1.7737,-1.7737,-1.7737,-1.7737,-1.7738,-1.7738,-1.7728,-1.7728,-1.7727,0,0,0,0,0,0,0,0,0,0,0,0,0,-1.7751,-1.7757,-1.7744,-1.7743,-1.7743,-1.7737,-1.7737,-1.7737,-1.7737,-1.7737,-1.7738,-1.7738,-1.7728,-1.7728,-1.7727,-1.7721,0,0,-1.7726,-1.7726,0,0,0,0,0,0,0,0,-1.7751,-1.775,-1.7744,-1.7743,-1.7743,-1.7738,-1.7738,-1.7731,-1.7737,-1.774,-1.7738,-1.7738,-1.7731,-1.7731,-1.7729,-1.772,-1.772,-1.7726,-1.7725,-1.7725,-1.7725,0,0,0,0,0,0,0,-1.7752,-1.7751,-1.7741,-1.7744,-1.7743,-1.7743,-1.7742,-1.7737,-1.7734,-1.7739,-1.7739,-1.7739,-1.7731,-1.7729,-1.7729,-1.772,-1.7726,-1.7725,-1.7725,-1.7725,-1.7706,-1.7706,0,0,0,0,0,0,-1.7752,-1.7751,-1.7741,-1.7741,-1.7748,-1.7743,-1.7742,-1.774,-1.7735,-1.7734,-1.7738,-1.7739,-1.773,-1.7729,-1.7728,-1.772,-1.7725,-1.7725,-1.7724,-1.7706,-1.7706,-1.7706,0,0,0,0,0,0,-1.7753,-1.7751,-1.7742,-1.7746,-1.7745,-1.7742,-1.774,-1.7739,-1.7738,-1.7734,-1.7733,-1.7737,-1.773,-1.7729,-1.7723,-1.772,-1.7724,-1.7724,-1.7706,-1.7706,-1.7706,-1.7705,0,0,0,0,0,0,-1.7753,-1.7752,-1.7749,-1.7746,-1.7745,-1.7737,-1.774,-1.7739,-1.7737,-1.7737,-1.7732,-1.7732,-1.773,-1.7724,-1.7722,-1.7719,-1.7724,-1.7707,-1.7706,-1.7706,-1.7705,-1.7704,-1.7704,0,0,0,0,0,-1.7753,-1.7748,-1.7749,-1.7748,-1.7742,-1.7737,-1.7736,-1.7735,-1.7737,-1.7734,-1.7732,-1.7732,-1.7721,-1.7723,-1.7722,-1.7718,-1.7707,-1.7706,-1.7706,-1.7705,-1.7704,-1.7704,0,0,0,0,0,0,-1.775,-1.7748,-1.7749,-1.7743,-1.774,-1.7737,-1.7734,-1.7734,-1.773,-1.7731,-1.7729,-1.7728,-1.7722,-1.7719,-1.7722,-1.7712,-1.7714,-1.7713,-1.7714,-1.7713,-1.7713,-1.7713,-1.7723,0,0,0,0,0,-1.7749,-1.7746,-1.7744,-1.7739,-1.7737,-1.7736,-1.7734,-1.7733,-1.773,-1.7729,-1.7726,-1.7723,-1.7719,-1.7716,-1.7712,-1.7705,-1.7704,-1.7702,-1.7701,-1.7701,-1.77,-1.7697,-1.7696,-1.7705,-1.7705,-1.7705,0,0,-1.7746,-1.7745,-1.7743,-1.7738,-1.7736,-1.7732,-1.7735,-1.7731,-1.7728,-1.7728,-1.7722,-1.772,-1.7716,-1.771,-1.7707,-1.7708,-1.7698,-1.77,-1.77,-1.77,-1.7696,-1.7696,-1.7695,-1.7704,-1.7704,-1.7704,0,0,-1.7739,-1.7738,-1.7734,-1.7732,-1.7729,-1.7728,-1.7727,-1.7724,-1.7723,-1.7718,-1.7718,-1.7715,-1.7707,-1.7705,-1.7702,-1.7696,-1.7696,-1.7694,-1.7692,-1.7688,-1.7688,-1.7687,-1.7685,-1.7684,-1.7694,-1.7694,-1.7694,0,-1.7736,-1.7731,-1.7731,-1.7727,-1.7726,-1.7727,-1.7722,-1.772,-1.7716,-1.7715,-1.7716,-1.7707,-1.7705,-1.7698,-1.7697,-1.7695,-1.7694,-1.7695,-1.7688,-1.7687,-1.7687,-1.7685,-1.7684,-1.7694,-1.7694,-1.7694,-1.7694,0,-1.7727,-1.7724,-1.7721,-1.7718,-1.7715,-1.7711,-1.7711,-1.7708,-1.7708,-1.7707,-1.7702,-1.7699,-1.7695,-1.7693,-1.7693,-1.7687,-1.7688,-1.7688,-1.769,-1.7686,-1.7684,-1.7683,-1.7694,-1.7694,-1.7694,-1.7694,0,0,-1.7717,-1.7715,-1.7714,-1.7713,-1.7711,-1.7708,-1.7704,-1.7701,-1.7699,-1.7696,-1.7693,-1.7687,-1.7688,-1.7686,-1.7685,-1.7682,-1.7678,-1.7684,-1.7683,-1.7683,-1.7671,-1.7671,-1.767,-1.7678,-1.7678,-1.7678,-1.7672,0,-1.771,-1.7704,-1.7704,-1.7698,-1.7695,-1.7697,-1.7693,-1.7691,-1.7691,-1.7688,-1.7687,-1.7683,-1.7684,-1.7683,-1.768,-1.7679,-1.7675,-1.7679,-1.7674,-1.7674,-1.7675,-1.7668,-1.7667,-1.7662,-1.7671,-1.7671,-1.7671,0,-1.77,-1.7699,-1.7692,-1.7691,-1.769,-1.7687,-1.7685,-1.7682,-1.768,-1.7679,-1.7677,-1.7677,-1.7673,-1.7676,-1.767,-1.7673,-1.7671,-1.767,-1.767,-1.7669,-1.7672,-1.7667,-1.766,-1.7659,-1.7669,-1.7669,-1.7669,0,-1.7694,-1.769,-1.7686,-1.7685,-1.7683,-1.7681,-1.768,-1.7679,-1.7677,-1.7675,-1.7673,-1.767,-1.7669,-1.7666,-1.7665,-1.7667,-1.766,-1.7662,-1.7659,-1.7659,-1.7657,-1.7657,-1.7649,-1.7656,-1.7656,-1.7656,-1.7656,0,-1.7686,-1.7682,-1.7683,-1.768,-1.7676,-1.7677,-1.7673,-1.7672,-1.7671,-1.7668,-1.7669,-1.7667,-1.7666,-1.7663,-1.7663,-1.7658,-1.7657,-1.7657,-1.7657,-1.7657,-1.7657,-1.7655,-1.7655,-1.7656,-1.7656,-1.7656,-1.7656,0,-1.7677,-1.7678,-1.7674,-1.7673,-1.7673,-1.767,-1.7669,-1.7667,-1.7667,-1.7663,-1.7663,-1.7662,-1.7659,-1.7658,-1.7654,-1.7654,-1.7649,-1.7649,-1.765,-1.765,-1.7647,-1.7647,-1.7637,-1.7636,-1.7644,-1.7644,-1.7644,0,-1.7672,-1.7669,-1.7669,-1.7668,-1.7667,-1.7665,-1.7663,-1.7664,-1.7662,-1.766,-1.7658,-1.7656,-1.7653,-1.7648,-1.7647,-1.7644,-1.7644,-1.7641,-1.7644,-1.7644,-1.7644,-1.7644,-1.7644,-1.764,-1.764,-1.764,-1.764,0,-1.7662,-1.7663,-1.7661,-1.766,-1.7658,-1.7657,-1.7656,-1.7655,-1.7655,-1.7653,-1.7651,-1.7649,-1.7646,-1.7643,-1.764,-1.7639,-1.764,-1.764,-1.7639,-1.7639,-1.7639,-1.7639,-1.7648,-1.764,-1.764,-1.764,-1.764,-1.764,-1.7655,-1.7653,-1.7653,-1.7651,-1.7651,-1.765,-1.7648,-1.7648,-1.7646,-1.7643,-1.7644,-1.7641,-1.764,-1.7637,-1.7635,-1.7633,-1.7634,-1.7633,-1.7632,-1.7632,-1.7632,-1.764,-1.7632,-1.7632,-1.7632,-1.7632,-1.7632,0,-1.7646,-1.7646,-1.7644,-1.7643,-1.7642,-1.7644,-1.7643,-1.7641,-1.7639,-1.7638,-1.7636,-1.7633,-1.7631,-1.763,-1.7628,-1.7626,-1.7627,-1.7626,-1.7625,-1.7625,-1.7631,-1.7632,-1.7625,-1.7625,-1.7625,-1.7625,-1.7625,-1.7625,-1.7641,-1.7638,-1.7638,-1.7635,-1.7635,-1.7633,-1.7632,-1.7631,-1.7631,-1.7628,-1.7626,-1.7626,-1.7625,-1.7623,-1.7621,-1.7621,-1.762,-1.7619,-1.7619,-1.7624,-1.7625,-1.7625,-1.7626,-1.7619,-1.7619,-1.7614,-1.7614,-1.7613]},{"header":{"parameterUnit":"m.s-1","parameterCategory":1,"la1":30.2991,"la2":30.254,"lo1":-89.0895,"lo2":-89.0444,"dy":0.0017,"dx":0.0017,"nx":28,"ny":28,"refTime":"2025-04-30T21:00:00:Z","depth":0,"parameterNumber":3,"parameterNumberName":"V-component_of_WINDS"},"data":[0,0,0,0,0,0,0,0,0,0,0,0,0,0,0,0,0,0,0,0,0,0,0,0,0,0,0,0,0,0,0,0,0,0,0,0,0,0,0,0,0,0,0,0,0,0,0,0,0,0,0,0,0,0,0,0,0,0,4.8893,4.8892,0,4.8847,4.8847,4.8846,4.8765,4.8764,4.8762,4.8761,4.8715,4.8715,4.8715,0,0,0,0,0,0,0,0,0,0,0,0,0,4.891,4.891,4.8893,4.8892,4.8892,4.8847,4.8847,4.8846,4.8765,4.8764,4.8762,4.876,4.8715,4.8715,4.8715,0,0,0,0,0,0,0,0,0,0,0,0,0,4.8887,4.891,4.8893,4.8846,4.8841,4.8847,4.8847,4.8846,4.8766,4.8763,4.8761,4.8759,4.8715,4.8715,4.8715,4.8763,0,0,4.8716,4.8716,0,0,0,0,0,0,0,0,4.8889,4.8887,4.8853,4.8849,4.8844,4.8809,4.8836,4.8818,4.8766,4.8795,4.8761,4.8758,4.8748,4.8746,4.8742,4.8761,4.8759,4.8716,4.8716,4.8717,4.8717,0,0,0,0,0,0,0,4.889,4.8888,4.8875,4.8853,4.8847,4.8827,4.8821,4.8832,4.8785,4.8792,4.8786,4.8782,4.8745,4.8742,4.874,4.8759,4.8716,4.8717,4.8717,4.8717,4.8813,4.8816,0,0,0,0,0,0,4.8899,4.889,4.8876,4.8873,4.8861,4.8829,4.8822,4.8823,4.8785,4.8776,4.8784,4.8778,4.8743,4.874,4.8739,4.8791,4.8717,4.8717,4.8717,4.8811,4.8814,4.8816,0,0,0,0,0,0,4.8899,4.8898,4.8878,4.888,4.8876,4.8831,4.8832,4.8823,4.882,4.8778,4.8769,4.8789,4.8741,4.8738,4.8757,4.8789,4.8717,4.8717,4.8808,4.8812,4.8815,4.8898,0,0,0,0,0,0,4.89,4.8899,4.8917,4.8881,4.8876,4.8898,4.8834,4.8824,4.8821,4.8813,4.8781,4.8774,4.8739,4.8757,4.8758,4.8788,4.8718,4.8805,4.881,4.8814,4.8893,4.8904,4.8914,0,0,0,0,0,4.8901,4.8943,4.8918,4.8917,4.8898,4.89,4.8897,4.8856,4.8824,4.8841,4.8814,4.8775,4.8785,4.876,4.876,4.879,4.8803,4.8809,4.8814,4.8888,4.8902,4.8914,0,0,0,0,0,0,4.8984,4.8937,4.891,4.8941,4.8925,4.8886,4.8907,4.8873,4.8866,4.8859,4.8808,4.8802,4.8827,4.8811,4.8784,4.8834,4.8788,4.8793,4.8844,4.8857,4.8868,4.8871,4.8718,0,0,0,0,0,4.9006,4.9012,4.897,4.9002,4.8995,4.8953,4.8952,4.8922,4.8903,4.8896,4.8871,4.8855,4.8854,4.8855,4.8852,4.889,4.8881,4.891,4.8921,4.893,4.8936,4.8953,4.8965,4.8834,4.8834,4.8834,0,0,4.9051,4.9026,4.9033,4.9018,4.9002,4.9009,4.8948,4.8958,4.8962,4.8898,4.8914,4.8895,4.8873,4.8902,4.8913,4.8889,4.897,4.8937,4.8945,4.8945,4.896,4.8972,4.8983,4.8838,4.8837,4.8836,0,0,4.9137,4.9119,4.9143,4.9128,4.9104,4.9076,4.9082,4.9048,4.9032,4.9048,4.8999,4.9004,4.9004,4.899,4.8984,4.9063,4.9026,4.9064,4.912,4.9138,4.9148,4.9157,4.9185,4.9195,4.9069,4.9069,4.907,0,4.9196,4.9205,4.9159,4.9172,4.9167,4.9108,4.9131,4.9119,4.9096,4.9094,4.9067,4.9065,4.9046,4.907,4.9089,4.9086,4.9091,4.9067,4.915,4.9159,4.9167,4.9192,4.9203,4.9074,4.9074,4.9073,4.9073,0,4.9278,4.9285,4.9307,4.9285,4.9282,4.9301,4.9258,4.926,4.923,4.9204,4.922,4.9195,4.9186,4.9189,4.916,4.9208,4.9194,4.916,4.9112,4.9184,4.9208,4.9217,4.9081,4.9079,4.9078,4.9077,0,0,4.9416,4.9368,4.9377,4.9366,4.9335,4.934,4.9355,4.9345,4.9348,4.9334,4.9344,4.9346,4.9313,4.9305,4.9274,4.9289,4.9352,4.9252,4.9251,4.9271,4.9403,4.9429,4.9441,4.9328,4.9329,4.9331,4.9405,0,4.9495,4.9518,4.9477,4.9509,4.9514,4.9458,4.9471,4.9454,4.943,4.943,4.9404,4.9405,4.9362,4.9357,4.937,4.9342,4.9378,4.9336,4.9337,4.9338,4.9344,4.9453,4.9481,4.9552,4.9413,4.9415,4.9416,0,4.959,4.958,4.9613,4.9579,4.958,4.9592,4.9579,4.9581,4.9559,4.9541,4.9532,4.9494,4.9506,4.946,4.9475,4.9447,4.9445,4.9431,4.9433,4.9431,4.9381,4.9454,4.9573,4.9584,4.943,4.9429,4.9428,0,4.9686,4.9681,4.9699,4.9692,4.9653,4.9663,4.9647,4.9624,4.962,4.9609,4.9606,4.9597,4.9592,4.9585,4.9546,4.9516,4.9565,4.9516,4.9549,4.955,4.9562,4.9562,4.9683,4.9562,4.9562,4.9561,4.9561,0,4.9778,4.9801,4.9742,4.9754,4.9776,4.9729,4.9753,4.9732,4.9711,4.9717,4.9668,4.9674,4.9622,4.9623,4.9592,4.9609,4.9607,4.9592,4.9583,4.9596,4.9598,4.9593,4.9587,4.9564,4.9564,4.9563,4.9563,0,4.989,4.9851,4.9868,4.9829,4.982,4.9839,4.9805,4.9814,4.9787,4.9795,4.9794,4.9751,4.9749,4.9709,4.9699,4.9678,4.9707,4.9689,4.9714,4.9708,4.9743,4.9741,4.9865,4.9879,4.975,4.9752,4.9753,0,4.9951,4.9966,4.9929,4.993,4.9916,4.9918,4.9913,4.9867,4.9865,4.9841,4.9852,4.9846,4.9839,4.9839,4.9806,4.9798,4.9779,4.9824,4.9778,4.979,4.9779,4.9778,4.9779,4.9833,4.9835,4.9836,4.9837,0,5.0063,5.0043,5.0039,5.0028,5.0025,5.0014,5.0,5.0003,4.9952,4.9952,4.9949,4.9944,4.9933,4.9927,4.9913,4.9896,4.9858,4.9852,4.9859,4.9872,4.9885,4.9878,4.974,4.9849,4.9848,4.9847,4.9847,4.9846,5.0151,5.0162,5.0137,5.0134,5.0118,5.0106,5.0112,5.0085,5.0082,5.0069,5.0042,5.0044,5.002,4.9996,4.9983,4.9983,4.996,4.9971,4.9973,4.9976,4.9983,4.9886,4.998,4.998,4.9979,4.9979,4.9979,0,5.026,5.0241,5.0239,5.0221,5.0218,5.0182,5.0165,5.0165,5.0167,5.0148,5.0142,5.0138,5.0132,5.0099,5.0089,5.0095,5.0077,5.0094,5.0093,5.0089,5.0004,4.9999,5.0108,5.0108,5.0108,5.0108,5.0108,5.0108,5.0317,5.0333,5.031,5.0318,5.0298,5.0299,5.0292,5.028,5.0265,5.0263,5.0258,5.0236,5.0211,5.0198,5.0191,5.0181,5.0179,5.0202,5.0186,5.0108,5.0095,5.0083,5.0078,5.0202,5.0202,5.0271,5.0271,5.0272]}]]